• In Hungary
  • List of Countries
  • For 7 days
  • Water Temperature
  • Satellite Maps
  • Weather Map
  • News
  • Weather Widgets
  • user-avatar
    Login

    Hourly Weather Jarim

    Today, 28 May, Monday

    Time Temperature Precipitation Wind Pressure Humidity
    00:00 +19°C° 0.2 mm 2 mps 555 mmHg 43%
    01:00 +18°C° 0 mm 2 mps 554 mmHg 44%
    02:00 +18°C° 0 mm 2 mps 554 mmHg 44%
    03:00 +17°C° 0 mm 2 mps 554 mmHg 45%
    04:00 +18°C° 0 mm 1 mps 553 mmHg 45%
    05:00 +18°C° 0 mm 1 mps 553 mmHg 46%
    06:00 +16°C° 0 mm 1 mps 553 mmHg 47%
    07:00 +18°C° 0 mm 2 mps 554 mmHg 41%
    08:00 +19°C° 0 mm 2 mps 555 mmHg 36%
    09:00 +21°C° 0 mm 2 mps 556 mmHg 30%
    10:00 +22°C° 0 mm 3 mps 556 mmHg 27%
    11:00 +24°C° 0 mm 3 mps 557 mmHg 23%
    12:00 +25°C° 0 mm 4 mps 557 mmHg 20%
    13:00 +26°C° 0 mm 4 mps 557 mmHg 21%
    14:00 +26°C° 0 mm 4 mps 556 mmHg 21%
    15:00 +26°C° 0 mm 5 mps 556 mmHg 22%
    16:00 +25°C° 0.3 mm 5 mps 556 mmHg 27%
    17:00 +23°C° 0.3 mm 4 mps 555 mmHg 32%
    18:00 +22°C° 0.3 mm 4 mps 554 mmHg 38%
    19:00 +21°C° 0.6 mm 3 mps 554 mmHg 40%
    20:00 +20°C° 0.6 mm 3 mps 554 mmHg 42%
    21:00 +19°C° 0.6 mm 2 mps 554 mmHg 44%
    22:00 +19°C° 0.1 mm 2 mps 554 mmHg 45%
    23:00 +19°C° 0.1 mm 2 mps 554 mmHg 45%

    Tomorrow, 29 May, Tuesday

    Time Temperature Precipitation Wind Pressure Humidity
    00:00 +18°C° 0.1 mm 2 mps 554 mmHg 46%
    01:00 +19°C° 0 mm 1 mps 553 mmHg 47%
    02:00 +18°C° 0 mm 1 mps 553 mmHg 48%
    03:00 +18°C° 0 mm 1 mps 553 mmHg 48%
    04:00 +18°C° 0 mm 1 mps 553 mmHg 48%
    05:00 +16°C° 0 mm 1 mps 552 mmHg 49%
    06:00 +16°C° 0 mm 1 mps 552 mmHg 49%
    07:00 +19°C° 0 mm 1 mps 553 mmHg 40%
    08:00 +20°C° 0 mm 2 mps 554 mmHg 30%
    09:00 +21°C° 0 mm 2 mps 555 mmHg 21%
    10:00 +22°C° 0 mm 3 mps 556 mmHg 19%
    11:00 +25°C° 0 mm 3 mps 556 mmHg 17%
    12:00 +26°C° 0 mm 4 mps 556 mmHg 15%
    13:00 +26°C° 0 mm 4 mps 556 mmHg 17%
    14:00 +26°C° 0 mm 4 mps 556 mmHg 19%
    15:00 +26°C° 0 mm 4 mps 555 mmHg 21%
    16:00 +25°C° 0.4 mm 5 mps 555 mmHg 26%
    17:00 +23°C° 0.4 mm 5 mps 554 mmHg 31%
    18:00 +22°C° 0.4 mm 5 mps 554 mmHg 36%
    19:00 +21°C° 0.8 mm 4 mps 554 mmHg 39%
    20:00 +20°C° 0.8 mm 3 mps 554 mmHg 42%
    21:00 +20°C° 0.8 mm 2 mps 554 mmHg 45%
    22:00 +19°C° 0.1 mm 2 mps 554 mmHg 46%
    23:00 +20°C° 0.1 mm 1 mps 553 mmHg 47%

    Day after tomorrow, 30 May, Wednesday

    Time Temperature Precipitation Wind Pressure Humidity
    00:00 +20°C° 0.1 mm 1 mps 553 mmHg 48%
    01:00 +19°C° 0 mm 1 mps 553 mmHg 49%
    02:00 +19°C° 0 mm 1 mps 552 mmHg 49%
    03:00 +19°C° 0 mm 1 mps 552 mmHg 49%
    04:00 +18°C° 0 mm 1 mps 552 mmHg 48%
    05:00 +18°C° 0 mm 1 mps 552 mmHg 47%
    06:00 +18°C° 0 mm 1 mps 552 mmHg 46%
    07:00 +20°C° 0 mm 1 mps 554 mmHg 40%
    08:00 +21°C° 0 mm 1 mps 555 mmHg 34%
    09:00 +23°C° 0 mm 2 mps 556 mmHg 28%
    10:00 +24°C° 0 mm 2 mps 556 mmHg 26%
    11:00 +25°C° 0 mm 3 mps 556 mmHg 24%
    12:00 +26°C° 0 mm 4 mps 557 mmHg 22%
    13:00 +26°C° 0 mm 4 mps 556 mmHg 24%
    14:00 +26°C° 0 mm 5 mps 556 mmHg 25%
    15:00 +25°C° 0 mm 5 mps 555 mmHg 27%
    16:00 +23°C° 0 mm 5 mps 555 mmHg 30%
    17:00 +23°C° 0 mm 4 mps 555 mmHg 33%
    18:00 +22°C° 0 mm 4 mps 554 mmHg 36%
    19:00 +21°C° 0 mm 4 mps 554 mmHg 37%
    20:00 +21°C° 0 mm 3 mps 555 mmHg 39%
    21:00 +20°C° 0 mm 3 mps 555 mmHg 40%
    22:00 +20°C° 0 mm 3 mps 554 mmHg 41%
    23:00 +19°C° 0 mm 2 mps 554 mmHg 43%

    31 May, Thursday

    Time Temperature Precipitation Wind Pressure Humidity
    00:00 +19°C° 0 mm 2 mps 554 mmHg 44%
    01:00 +18°C° 0 mm 2 mps 553 mmHg 44%
    02:00 +18°C° 0 mm 2 mps 553 mmHg 44%
    03:00 +19°C° 0 mm 1 mps 552 mmHg 43%
    04:00 +18°C° 0 mm 1 mps 553 mmHg 44%
    05:00 +18°C° 0 mm 1 mps 553 mmHg 45%
    06:00 +18°C° 0 mm 1 mps 553 mmHg 46%
    07:00 +19°C° 0 mm 2 mps 554 mmHg 41%
    08:00 +20°C° 0 mm 2 mps 555 mmHg 36%
    09:00 +22°C° 0 mm 3 mps 556 mmHg 31%
    10:00 +24°C° 0 mm 3 mps 557 mmHg 28%
    11:00 +25°C° 0 mm 4 mps 557 mmHg 25%
    12:00 +26°C° 0 mm 5 mps 557 mmHg 22%
    13:00 +26°C° 0 mm 5 mps 556 mmHg 24%
    14:00 +26°C° 0 mm 5 mps 556 mmHg 25%
    15:00 +25°C° 0 mm 5 mps 555 mmHg 27%
    16:00 +23°C° 0 mm 5 mps 555 mmHg 31%
    17:00 +23°C° 0 mm 4 mps 555 mmHg 34%
    18:00 +22°C° 0 mm 4 mps 554 mmHg 38%
    19:00 +21°C° 0.1 mm 3 mps 554 mmHg 40%
    20:00 +21°C° 0.1 mm 3 mps 555 mmHg 43%
    21:00 +20°C° 0.1 mm 3 mps 555 mmHg 45%
    22:00 +19°C° 0 mm 2 mps 554 mmHg 47%
    23:00 +19°C° 0 mm 2 mps 554 mmHg 49%

    1 June, Friday

    Time Temperature Precipitation Wind Pressure Humidity
    00:00 +19°C° 0 mm 1 mps 554 mmHg 51%
    01:00 +19°C° 0 mm 1 mps 553 mmHg 51%
    02:00 +19°C° 0 mm 1 mps 553 mmHg 52%
    03:00 +18°C° 0 mm 1 mps 553 mmHg 52%
    04:00 +18°C° 0 mm 1 mps 553 mmHg 52%
    05:00 +18°C° 0 mm 1 mps 553 mmHg 53%
    06:00 +18°C° 0 mm 1 mps 553 mmHg 53%
    07:00 +20°C° 0 mm 1 mps 554 mmHg 47%
    08:00 +20°C° 0 mm 2 mps 555 mmHg 40%
    09:00 +23°C° 0 mm 2 mps 556 mmHg 34%
    10:00 +24°C° 0 mm 3 mps 557 mmHg 32%
    11:00 +25°C° 0 mm 3 mps 557 mmHg 29%
    12:00 +25°C° 0 mm 4 mps 557 mmHg 27%
    13:00 +25°C° 0.5 mm 4 mps 556 mmHg 29%
    14:00 +25°C° 0.5 mm 4 mps 555 mmHg 32%
    15:00 +23°C° 0.5 mm 5 mps 555 mmHg 34%
    16:00 +23°C° 0.8 mm 4 mps 554 mmHg 37%
    17:00 +22°C° 0.8 mm 4 mps 554 mmHg 40%
    18:00 +21°C° 0.8 mm 4 mps 554 mmHg 43%
    19:00 +21°C° 0.1 mm 3 mps 554 mmHg 45%
    20:00 +20°C° 0.1 mm 3 mps 554 mmHg 47%
    21:00 +20°C° 0.1 mm 3 mps 554 mmHg 48%
    22:00 +20°C° 0.1 mm 3 mps 554 mmHg 50%
    23:00 +19°C° 0.1 mm 2 mps 554 mmHg 51%

    2 June, Saturday

    Time Temperature Precipitation Wind Pressure Humidity
    00:00 +20°C° 0.1 mm 1 mps 553 mmHg 53%
    01:00 +19°C° 0 mm 1 mps 553 mmHg 55%
    02:00 +19°C° 0 mm 1 mps 553 mmHg 57%
    03:00 +17°C° 0 mm 0 mps 552 mmHg 58%
    04:00 +16°C° 0 mm 0 mps 553 mmHg 58%
    05:00 +16°C° 0 mm 0 mps 553 mmHg 58%
    06:00 +16°C° 0 mm 0 mps 553 mmHg 57%
    07:00 +20°C° 0 mm 1 mps 554 mmHg 50%
    08:00 +20°C° 0 mm 2 mps 555 mmHg 43%
    09:00 +22°C° 0 mm 3 mps 556 mmHg 35%
    10:00 +24°C° 0 mm 3 mps 556 mmHg 34%
    11:00 +24°C° 0 mm 3 mps 556 mmHg 32%
    12:00 +25°C° 0 mm 4 mps 556 mmHg 31%
    13:00 +23°C° 1.6 mm 4 mps 556 mmHg 34%
    14:00 +23°C° 1.6 mm 4 mps 555 mmHg 37%
    15:00 +22°C° 1.6 mm 3 mps 554 mmHg 40%
    16:00 +22°C° 1.9 mm 3 mps 554 mmHg 43%
    17:00 +21°C° 1.9 mm 3 mps 554 mmHg 46%
    18:00 +21°C° 1.9 mm 2 mps 554 mmHg 48%
    19:00 +20°C° 0.7 mm 2 mps 554 mmHg 51%
    20:00 +19°C° 0.7 mm 2 mps 554 mmHg 55%
    21:00 +19°C° 0.7 mm 2 mps 554 mmHg 58%
    22:00 +19°C° 0 mm 1 mps 553 mmHg 58%
    23:00 +19°C° 0 mm 1 mps 553 mmHg 58%
    Show more